CZ-6A R/B

Satellite information

Favourite Embed

Satellite Type and Status

ROCKET BODYIN ORBIT

Key statistics

Satellite CZ-6A R/B at a glance.

Uptime

84

Days in orbit

Revolutions

≈ 13.9

Per day

Orbit

LEO

Low Earth Orbit

Inclination

86.5

Latest

Satellite identification and parameters

Extended collection of information and parameters for CZ-6A R/B.

Object identification

Identified? True

Debris? False

Object name: CZ-6A R/B

International designator: 2025-159F

Object number (NORAD): 64961

Object ID (CCSDS): 64961

Country: PEOPLES REPUBLIC OF CHINA (PRC)

Current information (Y/N): Y

RCS size: LARGE

Orbital parameters

Period: 103.297 minutes

Inclination: 86.5124 deg

SMA: 7292.663 km

Apoapsis: 988.597 km

Periapsis: 840.46 km

RAAN: 1.3273 deg

Eccentricy: 0.0101566

Argument of periapsis: 219.6706 deg

Mean anomaly: 139.7008 deg

Mean motion: 13.94034505 rev/day

Mean motion (dot): 0.000001 rev/day2

B* drag term: 0.000060249825 1/REarth

Two-line elements (TLE)

Creation date: Oct. 19, 2025, 2:20 a.m.

Reference frame: TEME

Reference center: EARTH

Epoch: Oct. 18, 2025, 10:41 p.m. UTC

TLE line 0: 0 CZ-6A R/B

TLE line 1: 1 64961U 25159F 25291.94515906 .00000100 00000-0 60250-4 0 9994

TLE line 2: 2 64961 86.5124 1.3273 0101566 219.6706 139.7008 13.94034505 11611

Live tracking on map

Real-time ground track for satellite CZ-6A R/B.

In-orbit conjunctions

A list of the most updated potential collisions computed for object CZ-6A R/B.

Target Orbit TCA Probability of collision Miss distance Type
THORAD AGENA D DEB SSO 2025-08-06 18:34:03 0.0001323338 477.0 (m) DEBRIS

Associated space launch

A batch of 5 Low Earth Orbit communication satellites for the Chinese state owned SatNet constellation operated by the China Satellite Network Group. The constellation will eventually consists of 13000 satellites.

CZ-6A R/B was lifted into orbit during the mission ‘Long March 6A | SatNet LEO Group 05’, on board a Long March 6A space rocket.

The launch took place on July 27, 2025, 10:03 a.m. from Launch Complex 9A.

For more information about the launch, click the button.

Launch to space Long March 6A | SatNet LEO Group 05
Long March 6A | SatNet LEO Group 05

Agency: N/A

Status: Launch Successful

Launch date: July 27, 2025, 10:03 a.m. UTC

Rocket: Long March 6A

Launch pad: Launch Complex 9A

Location: Taiyuan Satellite Launch Center, People's Republic of China

...

Latest news about this satellite

There are no fresh news available about this satellite. Check back as we update our databases every day.


Newsletter sign-up

Weekly statistics, charts and insights to help you stay on top of the space industry.